Location: Bailleul
(50.3375°N, 2.8513°E)
Time: 00:26:42
(UTC+00:00)

Cosmos 1943 Rocket - Visible Passes

Search period start: 16 October 2021 00:00
Search period end: 26 October 2021 00:00
Orbit: 810 x 845 km, 71.0° (Epoch: 15 October)

Date Brightness Start Highest point End Pass type
(mag) Time Alt. Az. Time Alt. Az. Time Alt. Az.
16 Oct 4.7 17:48:26 10° NNW 17:49:24 10° NNW 17:50:21 10° N visible
16 Oct 4.6 21:17:51 10° NNW 21:19:13 15° N 21:19:13 15° N visible
17 Oct 4.6 17:28:33 10° NNW 17:29:58 11° NNW 17:31:24 10° N visible
17 Oct 4.5 20:58:41 10° NNW 21:00:16 16° N 21:00:16 16° N visible
18 Oct 4.4 20:39:31 10° N 20:41:20 16° N 20:41:20 16° N visible
18 Oct 5.1 22:22:41 10° NNW 22:22:50 11° NNW 22:22:50 11° NNW visible
19 Oct 4.4 20:20:21 10° N 20:22:24 16° N 20:22:24 16° N visible
19 Oct 5.0 22:03:28 10° NNW 22:03:54 12° NNW 22:03:54 12° NNW visible
20 Oct 4.3 20:01:12 10° N 20:03:29 16° NNE 20:03:29 16° NNE visible
20 Oct 4.9 21:44:16 10° NNW 21:45:00 14° NNW 21:45:00 14° NNW visible
21 Oct 4.2 19:42:03 10° N 19:44:35 15° NNE 19:44:35 15° NNE visible
21 Oct 4.7 21:25:03 10° NNW 21:26:06 15° NNW 21:26:06 15° NNW visible
22 Oct 4.2 19:22:54 10° N 19:25:42 15° NNE 19:25:42 15° NNE visible
22 Oct 4.5 21:05:52 10° NNW 21:07:13 17° NNW 21:07:13 17° NNW visible
23 Oct 4.2 19:03:46 10° N 19:06:43 14° NNE 19:06:50 14° NNE visible
23 Oct 4.4 20:46:39 10° NNW 20:48:21 19° NNW 20:48:21 19° NNW visible
24 Oct 4.2 18:44:38 10° N 18:47:20 13° NNE 18:47:59 13° NNE visible
24 Oct 4.2 20:27:28 10° NNW 20:29:30 21° N 20:29:30 21° N visible
25 Oct 4.2 18:25:32 10° N 18:27:56 13° NNE 18:29:09 12° NE visible
25 Oct 4.0 20:08:16 10° NNW 20:10:40 23° N 20:10:40 23° N visible
25 Oct 5.1 21:51:59 10° NW 21:52:11 11° NW 21:52:11 11° NW visible
